VK2RZ Weather Reports


time (UTC)temp
F
wind
direction
speed
knots
gust
knots
rain 1hr
in
rain 24hr
in
rain mn
in
humidity
%
barometer
mb
20260906045743 68 131 7.0 7.8 0.00 0.00 0.00 5 1017.5
20260906044743 69 108 6.1 7.8 0.00 0.00 0.00 5 1017.4
20260906043743 68 202 1.7 7.0 0.00 0.00 0.00 5 1017.3
20260906042743 68 102 5.2 9.6 0.00 0.00 0.00 5 1017.3
20260906041743 69 101 3.5 10.4 0.00 0.00 0.00 4 1017.2
20260906040742 68 89 6.1 7.8 0.00 0.00 0.00 5 1017.2
20260906035742 69 185 2.6 8.7 0.00 0.00 0.00 4 1017.1
20260906034742 68 86 3.5 11.3 0.00 0.00 0.00 4 1017.2
20260906033742 70 175 5.2 5.2 0.00 0.00 0.00 4 1017.0
20260906032742 70 175 2.6 7.0 0.00 0.00 0.00 4 1017.0
20260906031742 69 108 2.6 7.0 0.00 0.00 0.00 4 1016.9
20260906030742 68 193 3.5 9.6 0.00 0.00 0.00 4 1016.9
20260906025742 70 197 7.0 10.4 0.00 0.00 0.00 4 1016.6
20260906024742 70 210 5.2 7.8 0.00 0.00 0.00 4 1016.8
20260906023742 70 287 7.0 8.7 0.00 0.00 0.00 4 1016.8
20260906022742 69 215 8.7 13.9 0.00 0.00 0.00 4 1016.8
20260906021742 69 225 4.3 7.8 0.00 0.00 0.00 4 1016.8
20260906020742 69 153 7.8 7.8 0.00 0.00 0.00 4 1016.9
20260906015742 68 220 7.8 11.3 0.00 0.00 0.00 4 1016.8
20260906014742 68 212 8.7 14.8 0.00 0.00 0.00 4 1016.8
20260906013742 68 209 3.5 13.0 0.00 0.00 0.00 4 1016.9
20260906012741 69 193 3.5 9.6 0.00 0.00 0.00 4 1017.1
20260906011741 68 249 4.3 8.7 0.00 0.00 0.00 4 1017.0
20260906010741 67 190 4.3 13.0 0.00 0.00 0.00 4 1017.0
20260906005741 67 242 1.7 9.6 0.00 0.00 0.00 4 1017.0
20260906004741 67 199 2.6 13.0 0.00 0.00 0.00 4 1016.8
20260906003741 67 230 11.3 15.6 0.00 0.00 0.00 4 1016.7
20260906002741 66 233 3.5 4.3 0.00 0.00 0.00 4 1016.8
20260906001741 66 213 8.7 12.2 0.00 0.00 0.00 4 1016.7
20260906000741 65 224 2.6 10.4 0.00 0.00 0.00 4 1016.6
20260905235741 65 249 4.3 14.8 0.00 0.00 0.00 4 1016.3
20260905234740 64 214 4.3 9.6 0.00 0.00 0.00 5 1016.3
20260905233740 64 228 3.5 15.6 0.00 0.00 0.00 4 1016.3
20260905232740 64 214 7.0 13.0 0.00 0.00 0.00 5 1016.2
20260905231740 63 201 4.3 12.2 0.00 0.00 0.00 5 1016.2
20260905230740 63 266 7.0 14.8 0.00 0.00 0.00 5 1016.2
20260905225740 62 263 11.3 14.8 0.00 0.00 0.00 5 1016.1
20260905224740 62 210 8.7 18.2 0.00 0.00 0.00 5 1015.9
20260905223740 62 254 6.1 13.9 0.00 0.00 0.00 5 1016.0
20260905222740 61 244 7.8 20.0 0.00 0.00 0.00 5 1016.1
20260905221740 61 256 14.8 16.5 0.00 0.00 0.00 5 1016.0
20260905220740 61 203 7.0 9.6 0.00 0.00 0.00 5 1015.9
20260905215740 61 202 7.0 12.2 0.00 0.00 0.00 5 1015.6
20260905214740 60 254 8.7 13.9 0.00 0.00 0.00 5 1015.4
20260905213740 60 222 3.5 13.0 0.00 0.00 0.00 5 1015.2
20260905212740 59 285 2.6 7.8 0.00 0.00 0.00 5 1015.2
20260905211740 59 296 1.7 3.5 0.00 0.00 0.00 5 1015.1
20260905210740 59 0 0.0 2.6 0.00 0.00 0.00 5 1015.2
20260905205740 58 293 0.9 1.7 0.00 0.00 0.00 5 1014.7
20260905204739 57 0 0.0 0.0 0.00 0.00 0.00 5 1014.7
20260905203739 57 0 0.0 2.6 0.00 0.00 0.00 5 1014.3
20260905202739 56 0 0.0 0.0 0.00 0.00 0.00 5 1014.3
20260905201739 56 0 0.0 1.7 0.00 0.00 0.00 5 1013.9
20260905200739 56 324 0.9 5.2 0.00 0.00 0.00 5 1013.6
20260905195739 56 0 0.0 1.7 0.00 0.00 0.00 5 1013.6
20260905194739 57 289 1.7 2.6 0.00 0.00 0.00 5 1013.6
20260905193739 57 291 2.6 3.5 0.00 0.00 0.00 5 1013.6
20260905192739 57 290 2.6 6.1 0.00 0.00 0.00 5 1013.0
20260905191739 57 268 0.9 3.5 0.00 0.00 0.00 5 1013.3
20260905190739 58 279 2.6 5.2 0.00 0.00 0.00 5 1012.8
20260905185739 59 284 1.7 5.2 0.00 0.00 0.00 5 1012.7
20260905184739 59 287 0.9 2.6 0.00 0.00 0.00 5 1012.6
20260905183739 60 280 2.6 7.0 0.00 0.00 0.00 5 1012.4
20260905182739 60 0 0.0 3.5 0.00 0.00 0.00 5 1012.2
20260905181739 61 268 2.6 4.3 0.00 0.00 0.00 5 1011.8
20260905180739 61 251 5.2 8.7 0.00 0.00 0.00 5 1011.3
20260905175739 61 291 0.9 9.6 0.00 0.00 0.00 5 1010.9
20260905174739 61 305 4.3 7.8 0.00 0.00 0.00 5 1010.8
20260905173739 62 223 4.3 9.6 0.00 0.00 0.00 5 1010.9
20260905172739 62 268 1.7 7.0 0.00 0.00 0.00 5 1011.1
20260905171738 63 260 0.9 3.5 0.00 0.00 0.00 5 1011.0
20260905170738 64 289 1.7 5.2 0.00 0.00 0.00 4 1011.2
20260905165738 64 249 0.9 2.6 0.00 0.00 0.00 4 1011.2
20260905164738 65 235 5.2 15.6 0.00 0.00 0.00 4 1011.3
20260905163737 65 231 4.3 8.7 0.00 0.00 0.00 4 1011.4
20260905162737 65 231 4.3 9.6 0.00 0.00 0.00 4 1011.3
20260905161737 66 231 2.6 9.6 0.00 0.00 0.00 5 1011.2
20260905160736 66 202 4.3 15.6 0.00 0.00 0.00 5 1011.3
20260905155736 66 226 2.6 10.4 0.00 0.00 0.00 5 1011.4
20260905154736 67 243 3.5 7.0 0.00 0.00 0.00 5 1011.5
20260905153736 68 258 3.5 10.4 0.00 0.00 0.00 5 1011.4
20260905152736 68 260 10.4 10.4 0.00 0.00 0.00 5 1010.8
20260905151736 68 245 0.9 7.0 0.00 0.00 0.00 5 1010.7
20260905150736 67 262 3.5 13.0 0.00 0.00 0.00 5 1010.4
20260905145736 66 259 3.5 4.3 0.00 0.00 0.00 6 1010.3
20260905144736 66 257 0.9 3.5 0.00 0.00 0.00 6 1010.2
20260905143736 66 216 2.6 5.2 0.00 0.00 0.00 6 1010.1
20260905142736 67 208 1.7 4.3 0.00 0.00 0.00 6 1010.1
20260905141736 67 228 2.6 3.5 0.00 0.00 0.00 6 1010.0
20260905140736 68 248 1.7 4.3 0.00 0.00 0.00 6 1009.9
20260905135736 69 237 1.7 3.5 0.00 0.00 0.00 5 1009.8
20260905134736 69 261 3.5 7.8 0.00 0.00 0.00 5 1009.6
20260905133736 68 228 4.3 7.8 0.00 0.00 0.00 5 1009.4
20260905132736 67 0 0.0 7.0 0.00 0.00 0.00 6 1009.2
20260905131736 66 299 3.5 5.2 0.00 0.00 0.00 6 1009.3
20260905130736 66 254 2.6 4.3 0.00 0.00 0.00 6 1009.2
20260905125736 65 202 2.6 2.6 0.00 0.00 0.00 6 1009.0
20260905124736 65 202 0.9 1.7 0.00 0.00 0.00 6 1008.8
20260905123736 66 0 0.0 1.7 0.00 0.00 0.00 6 1008.8
20260905122736 67 202 0.9 2.6 0.00 0.00 0.00 6 1008.9
20260905121736 66 201 0.9 1.7 0.00 0.00 0.00 6 1008.8
20260905120736 66 0 0.0 0.0 0.00 0.00 0.00 6 1008.9
20260905115736 67 0 0.0 1.7 0.00 0.00 0.00 6 1008.9
20260905114736 67 0 0.0 0.0 0.00 0.00 0.00 6 1009.0
20260905113736 68 0 0.0 1.7 0.00 0.00 0.00 6 1009.1
20260905112736 69 0 0.0 3.5 0.00 0.00 0.00 6 1009.1
20260905111735 69 0 0.0 2.6 0.00 0.00 0.00 6 1009.0
20260905110735 70 211 0.9 2.6 0.00 0.00 0.00 5 1009.0
20260905105735 70 193 2.6 6.1 0.00 0.00 0.00 5 1008.8
20260905104739 71 193 0.9 7.0 0.00 0.00 0.00 5 1008.8
20260905104734 71 193 0.9 7.0 0.00 0.00 0.00 5 1008.8
20260905103734 71 194 0.9 3.5 0.00 0.00 0.00 5 1008.8
20260905102734 71 256 2.6 8.7 0.00 0.00 0.00 5 1008.7
20260905101734 71 150 2.6 4.3 0.00 0.00 0.00 5 1008.8
20260905100734 71 288 2.6 8.7 0.00 0.00 0.00 5 1008.6
20260905095734 72 90 1.7 5.2 0.00 0.00 0.00 5 1008.7
20260905094734 72 65 1.7 8.7 0.00 0.00 0.00 5 1008.6
20260905093733 72 85 1.7 4.3 0.00 0.00 0.00 5 1008.6
20260905092731 71 207 0.9 5.2 0.00 0.00 0.00 5 1008.7
20260905091731 71 139 1.7 3.5 0.00 0.00 0.00 5 1008.7
20260905090731 71 122 2.6 4.3 0.00 0.00 0.00 5 1008.7
20260905085731 71 111 7.0 7.8 0.00 0.00 0.00 5 1008.7
20260905084731 71 141 5.2 5.2 0.00 0.00 0.00 5 1008.7
20260905083731 71 101 2.6 5.2 0.00 0.00 0.00 5 1008.9
20260905082731 71 118 4.3 7.0 0.00 0.00 0.00 5 1009.3
20260905081731 71 92 3.5 5.2 0.00 0.00 0.00 6 1009.6
20260905080731 71 222 0.9 4.3 0.00 0.00 0.00 6 1009.9
20260905075731 71 254 2.6 10.4 0.00 0.00 0.00 6 1010.5
20260905074731 71 262 6.1 9.6 0.00 0.00 0.00 6 1010.5
20260905073731 70 231 2.6 13.9 0.00 0.00 0.00 6 1010.6
20260905072731 70 222 11.3 12.2 0.00 0.00 0.00 6 1010.6
20260905071731 71 240 11.3 15.6 0.00 0.00 0.00 6 1010.5
20260905070731 73 260 7.0 20.9 0.00 0.00 0.00 5 1010.3
20260905065731 74 233 4.3 14.8 0.00 0.00 0.00 5 1009.3
20260905064731 74 231 8.7 15.6 0.00 0.00 0.00 5 1009.7
20260905063731 74 247 4.3 20.9 0.00 0.00 0.00 5 1009.5
20260905062731 84 254 25.2 33.9 0.00 0.00 0.00 3 1008.7
20260905061731 85 175 7.0 11.3 0.00 0.00 0.00 3 1007.3
20260905060731 85 212 3.5 7.0 0.00 0.00 0.00 3 1007.3
20260905055731 86 256 2.6 7.8 0.00 0.00 0.00 3 1007.0
20260905054731 86 216 3.5 10.4 0.00 0.00 0.00 3 1006.5
20260905053731 86 282 7.0 10.4 0.00 0.00 0.00 3 1006.2
20260905052731 87 193 1.7 7.8 0.00 0.00 0.00 3 1006.1
20260905051731 87 291 2.6 14.8 0.00 0.00 0.00 2 1006.1
20260905050731 87 245 3.5 10.4 0.00 0.00 0.00 2 1006.0